CAPE
963 991 787 579 499 499 728 331 354 316 285 160 31 175 52 32 67 299 606 373 370 335 327 344 338 490 480 424 566 886 1543 1746 1635
968 876 736 584 517 506 404 604 507 511 235 349 282 180 270 303 358 564 443 291 265 310 294 287 304 343 358 418 436 453 639 846 1279
724 651 615 636 814 992 357 230 240 152 303 192 77 101 146 229 235 259 169 121 137 104 60 19 16 0 0 106 277 379 482 517 542
957 742 684 634 595 438 332 176 212 223 82 39 3 41 29 7 17 45 21 15 66 62 55 55 0 0 0 0 0 1 0 27 294
1127 1033 1045 608 377 333 297 184 229 120 35 8 5 11 13 51 68 43 54 115 115 80 3 0 3 4 2 1 3 5 4 2 3
994 978 743 596 451 398 156 195 201 117 70 75 55 78 62 69 65 16 0 0 1 4 8 8 5 6 6 7 11 13 12 13 12
726 895 736 527 560 341 322 282 209 192 149 103 79 59 8 0 0 0 2 6 11 10 8 5 5 6 12 14 12 2 0 0 12
987 893 673 645 587 494 395 346 458 185 38 4 0 0 0 0 4 7 8 6 4 2 2 1 5 7 7 6 6 1 0 0 10
1112 857 730 667 617 520 374 408 325 0 0 0 0 0 1 5 6 6 3 1 1 0 0 1 1 1 0 1 0 0 0 7 1
1037 847 808 705 554 348 440 123 0 0 0 0 0 0 1 3 5 4 0 0 0 0 0 0 0 0 0 0 0 2 2 4 0
1034 778 640 627 308 412 86 0 0 0 0 0 0 1 0 0 1 0 0 0 0 0 0 0 0 0 0 0 0 0 1 0 0
960 712 728 382 402 22 0 0 0 0 0 0 0 0 0 0 0 1 1 0 0 0 0 0 0 0 0 0 0 0 0 0 0
1089 829 544 426 8 0 0 0 0 0 0 0 0 1 6 2 0 0 0 0 0 0 0 0 0 0 0 0 0 0 0 0 0
858 740 484 114 30 19 0 0 0 0 1 4 2 3 4 2 0 0 0 0 0 0 0 0 0 0 0 0 0 0 0 0 0
781 553 190 162 107 33 0 0 0 0 1 0 0 0 0 0 0 0 0 0 0 0 0 0 0 0 0 0 0 0 0 0 0
799 447 212 154 145 26 0 0 0 0 0 0 0 0 0 0 0 0 0 0 0 0 0 0 0 0 0 0 0 0 0 0 0
518 361 203 228 176 3 0 0 0 0 0 0 0 0 0 0 0 0 0 0 0 0 0 0 0 0 0 0 0 0 0 0 0
388 232 210 240 71 0 0 0 0 0 0 0 0 0 0 0 0 0 0 0 0 0 0 0 0 0 0 0 0 0 0 0 0
297 274 287 139 0 0 0 0 0 0 0 0 0 0 0 0 0 0 0 0 0 0 0 0 0 0 0 0 0 0 0 0 0
324 278 90 0 0 0 0 0 0 0 0 0 0 0 0 0 0 0 0 0 0 0 0 0 0 0 0 0 0 1 0 0 0
CIN
-337 -296 -327 -87 -60 -247 -196 -210 -134 -115 -100 -68 -233 -247 -403 -446 -292 -18 -15 -53 -71 -62 -89 -80 -89 -95 -101 -59 -74 -41 -13 -5 -4
-346 -312 -336 -321 -85 -252 -127 -195 -150 -170 -140 -114 -133 -179 -189 -120 -111 -1 -12 -37 -53 -56 -49 -53 -50 -52 -40 -30 -37 -29 -43 -20 -7
-271 -210 -139 -228 -235 -182 -313 -299 -263 -185 -195 -140 -248 -201 -165 -64 -78 -68 -56 -68 -70 -47 -39 -23 -10 0 0 -47 -25 -4 -3 -11 -16
-383 -355 -176 -315 -338 -347 -234 -175 -286 -258 -156 -163 -72 -115 -64 -125 -187 -102 -128 -129 -56 -38 -30 -39 0 0 0 0 0 0 0 -27 -23
-314 -301 -261 -373 -138 -85 -140 -185 -267 -331 -189 -122 -112 -124 -192 -228 -160 -189 -126 -52 -69 -96 -5 0 0 0 0 0 0 0 0 0 0
-332 -295 -320 -344 -353 -203 -155 -301 -147 -162 -154 -138 -174 -273 -220 -154 -139 -127 0 0 0 0 0 0 0 0 0 0 0 0 0 0 0
-445 -282 -217 -171 -231 -201 -209 -181 -152 -98 -90 -109 -138 -174 -83 0 0 0 0 0 0 0 0 0 0 0 0 0 0 0 0 0 0
-352 -275 -227 -192 -189 -163 -215 -178 -54 -99 -259 -68 0 0 0 0 0 0 0 0 0 0 0 0 0 0 0 0 0 0 0 0 0
-314 -322 -245 -191 -138 -100 -104 -62 -53 0 0 0 0 0 0 0 0 0 0 0 0 0 0 0 0 0 0 0 0 0 0 0 0
-316 -244 -207 -160 -108 -164 -92 -147 0 0 0 0 0 0 0 0 0 0 0 0 0 0 0 0 0 0 0 0 0 0 0 0 0
-290 -256 -184 -138 -206 -110 -182 0 0 0 0 0 0 0 0 0 0 0 0 0 0 0 0 0 0 0 0 0 0 0 0 0 0
-279 -169 -158 -199 -145 -260 0 0 0 0 0 0 0 0 0 0 0 0 0 0 0 0 0 0 0 0 0 0 0 0 0 0 0
-236 -190 -137 -182 -240 -24 0 0 0 0 0 0 0 0 0 0 0 0 0 0 0 0 0 0 0 0 0 0 0 0 0 0 0
-216 -131 -232 -225 -240 -241 0 0 0 0 0 0 0 0 0 0 0 0 0 0 0 0 0 0 0 0 0 0 0 0 0 0 0
-179 -191 -233 -191 -157 -188 0 0 0 0 0 0 0 0 0 0 0 0 0 0 0 0 0 0 0 0 0 0 0 0 0 0 0
-155 -151 -177 -153 -106 -143 0 0 0 0 0 0 0 0 0 0 0 0 0 0 0 0 0 0 0 0 0 0 0 0 0 0 0
-194 -174 -152 -89 -57 -142 0 0 0 0 0 0 0 0 0 0 0 0 0 0 0 0 0 0 0 0 0 0 0 0 0 0 0
-181 -149 -99 -39 -65 0 0 0 0 0 0 0 0 0 0 0 0 0 0 0 0 0 0 0 0 0 0 0 0 0 0 0 0
-153 -107 -46 -48 0 0 0 0 0 0 0 0 0 0 0 0 0 0 0 0 0 0 0 0 0 0 0 0 0 0 0 0 0
-111 -79 -84 -4 0 0 0 0 0 0 0 0 0 0 0 0 0 0 0 0 0 0 0 0 0 0 0 0 0 -1 0 0 0
Wind_Speed
36 29 24 27 22 11 3 7 15 14 16 14 nan 2 nan nan nan 9 8 13 14 17 20 22 22 24 26 25 24 24 26 25 22
32 21 22 25 22 19 17 15 18 14 8 15 15 13 12 13 14 14 15 19 21 24 25 25 24 26 25 24 24 25 25 27 27
22 21 23 24 18 14 15 12 8 11 13 8 nan 14 19 21 21 23 23 22 27 29 nan nan nan nan nan 25 24 25 26 26 30
19 23 21 21 22 19 18 19 20 21 nan nan nan nan nan nan nan nan nan nan nan nan nan nan nan nan nan nan nan nan nan nan 24
26 23 23 25 24 24 22 20 22 24 nan nan nan nan nan nan nan nan nan 32 34 nan nan nan nan nan nan nan nan nan nan nan nan
26 22 27 30 32 26 25 23 23 26 nan nan nan nan nan nan nan nan nan nan nan nan nan nan nan nan nan nan nan nan nan nan nan
23 23 28 32 34 29 28 25 26 29 29 31 nan nan nan nan nan nan nan nan nan nan nan nan nan nan nan nan nan nan nan nan nan
26 28 29 30 33 29 29 29 30 32 nan nan nan nan nan nan nan nan nan nan nan nan nan nan nan nan nan nan nan nan nan nan nan
30 35 39 33 29 28 30 30 32 nan nan nan nan nan nan nan nan nan nan nan nan nan nan nan nan nan nan nan nan nan nan nan nan
37 37 32 32 28 28 29 32 nan nan nan nan nan nan nan nan nan nan nan nan nan nan nan nan nan nan nan nan nan nan nan nan nan
28 26 30 32 30 30 nan nan nan nan nan nan nan nan nan nan nan nan nan nan nan nan nan nan nan nan nan nan nan nan nan nan nan
26 32 30 27 30 nan nan nan nan nan nan nan nan nan nan nan nan nan nan nan nan nan nan nan nan nan nan nan nan nan nan nan nan
31 31 30 31 nan nan nan nan nan nan nan nan nan nan nan nan nan nan nan nan nan nan nan nan nan nan nan nan nan nan nan nan nan
29 31 35 35 nan nan nan nan nan nan nan nan nan nan nan nan nan nan nan nan nan nan nan nan nan nan nan nan nan nan nan nan nan
33 37 40 40 38 nan nan nan nan nan nan nan nan nan nan nan nan nan nan nan nan nan nan nan nan nan nan nan nan nan nan nan nan
38 40 40 40 39 nan nan nan nan nan nan nan nan nan nan nan nan nan nan nan nan nan nan nan nan nan nan nan nan nan nan nan nan
38 41 43 43 41 nan nan nan nan nan nan nan nan nan nan nan nan nan nan nan nan nan nan nan nan nan nan nan nan nan nan nan nan
43 43 45 44 nan nan nan nan nan nan nan nan nan nan nan nan nan nan nan nan nan nan nan nan nan nan nan nan nan nan nan nan nan
44 47 45 42 nan nan nan nan nan nan nan nan nan nan nan nan nan nan nan nan nan nan nan nan nan nan nan nan nan nan nan nan nan
48 43 nan nan nan nan nan nan nan nan nan nan nan nan nan nan nan nan nan nan nan nan nan nan nan nan nan nan nan nan nan nan nan
Wind_Direction
324 342 7 8 9 48 46 350 40 38 73 42 nan 322 nan nan nan 252 264 276 293 296 300 298 297 296 295 289 279 272 272 278 280
331 333 2 7 21 2 19 21 33 24 6 9 345 334 318 306 289 301 294 287 296 296 297 298 296 294 288 282 281 281 276 270 261
339 341 351 353 356 356 347 352 356 353 334 329 nan 306 299 295 292 286 285 289 287 287 nan nan nan nan nan 286 282 276 275 278 265
337 356 354 344 334 324 321 325 327 324 nan nan nan nan nan nan nan nan nan nan nan nan nan nan nan nan nan nan nan nan nan nan 269
312 298 336 339 323 318 312 311 322 324 nan nan nan nan nan nan nan nan nan 282 283 nan nan nan nan nan nan nan nan nan nan nan nan
311 310 309 317 321 310 310 309 314 314 nan nan nan nan nan nan nan nan nan nan nan nan nan nan nan nan nan nan nan nan nan nan nan
311 311 308 314 314 310 311 309 309 308 304 303 nan nan nan nan nan nan nan nan nan nan nan nan nan nan nan nan nan nan nan nan nan
312 310 305 309 317 309 305 301 300 299 nan nan nan nan nan nan nan nan nan nan nan nan nan nan nan nan nan nan nan nan nan nan nan
315 312 310 307 312 313 306 304 300 nan nan nan nan nan nan nan nan nan nan nan nan nan nan nan nan nan nan nan nan nan nan nan nan
321 314 306 311 310 307 306 302 nan nan nan nan nan nan nan nan nan nan nan nan nan nan nan nan nan nan nan nan nan nan nan nan nan
314 317 317 307 306 306 nan nan nan nan nan nan nan nan nan nan nan nan nan nan nan nan nan nan nan nan nan nan nan nan nan nan nan
316 317 313 310 311 nan nan nan nan nan nan nan nan nan nan nan nan nan nan nan nan nan nan nan nan nan nan nan nan nan nan nan nan
311 308 303 307 nan nan nan nan nan nan nan nan nan nan nan nan nan nan nan nan nan nan nan nan nan nan nan nan nan nan nan nan nan
318 311 307 308 nan nan nan nan nan nan nan nan nan nan nan nan nan nan nan nan nan nan nan nan nan nan nan nan nan nan nan nan nan
317 311 311 313 308 nan nan nan nan nan nan nan nan nan nan nan nan nan nan nan nan nan nan nan nan nan nan nan nan nan nan nan nan
314 311 315 314 309 nan nan nan nan nan nan nan nan nan nan nan nan nan nan nan nan nan nan nan nan nan nan nan nan nan nan nan nan
310 310 313 313 312 nan nan nan nan nan nan nan nan nan nan nan nan nan nan nan nan nan nan nan nan nan nan nan nan nan nan nan nan
314 316 315 315 nan nan nan nan nan nan nan nan nan nan nan nan nan nan nan nan nan nan nan nan nan nan nan nan nan nan nan nan nan
314 311 313 315 nan nan nan nan nan nan nan nan nan nan nan nan nan nan nan nan nan nan nan nan nan nan nan nan nan nan nan nan nan
308 310 nan nan nan nan nan nan nan nan nan nan nan nan nan nan nan nan nan nan nan nan nan nan nan nan nan nan nan nan nan nan nan